STARLINK-38179, 100150

Orbit data source: Space-Track

STARLINK-38179, 100150 is a payload satellite owned by SpaceX/Seattle (US) in SSO that was launched on Sat, 25 Jul 2026 UTC launched from the Air Force Western Test Range (AFWTR). Payload-class satellites include a variety of spacecraft equipped with specific instruments for various scientific and technological missions. These include communications satellites like Starlink; space stations such as the ISS; scientific satellites like the Hubble; Earth observation satellites from companies like Planet Labs, Umbra, and HawkEye 360; GPS; miniature CubeSats for education and research; and military/defense satellites.

Loading next visibility...
Identifier
100150, 2026-171C
Orbit
SSO
Country
Flag of USUS
Related business
Manufacturer
SpaceX/Seattle
Mission
Operational spacecraft
Bus & Motor
STARLINK V2MO, Unknown motor
Mass
575 kg wet, ~530 kg dry
Launch date (UTC)
2026-07-25 (3 weeks ago)
Launch vehicle
Unknown
Launch site
Air Force Western Test Range (AFWTR)
Object type
Payload
Rocket body
Debris
Shape & HBR
BOX + PAN, 17.7 m
Radar Cross Section
RCS unknown

Expand to show TLE details & history
Last TLE update: 8 hours ago

TLE from 8 hours ago
0 STARLINK-38179
1 A0150U 26171C   26227.64707186  .00169867  00000-0  11173-2 0  9993
2 A0150  97.2845 259.5707 0000832 101.0166 259.1193 15.75188411  3336
Epoch: 2026-08-15T15:31Z
TLE epoch observation values (Epoch: 2026-08-15T15:31:47.008Z)
Latitude
-0.00002°
Longitude
62.56989°
Altitude
347.369 km
Speed
7.7 km/s
True Right ascension
17h 18m 16s
True Declination
0° 00' 00"
Sunlit
Object was in full shadow at epoch
Visualization orbit readout
Latitude
Unknown
Longitude
Unknown
Altitude
Unknown
Speed
Unknown
Apparent Right ascension
Unknown
Apparent Declination
Unknown
Sunlit
N/A
Visualization observer readout
Local Sidereal Time
13:43:20
Azimuth
Unknown
Elevation
Unknown
Doppler factor
Unknown
Orbital elements
Apogee altitude
341.542 km
Perigee altitude
340.423 km
Semi-major axis
6,719.119 km
Eccentricity
0.00008
Inclination
97.2845°
RAAN
259.5707°
Arg. of periapsis
101.0166°
True anomaly
259.10994°
Mean anomaly
259.1193°
Eccentric anomaly
259.11462°
Mean motion
3.94071 °/min
Orbital period
91.35 mins
BSTAR
0.0011173
Loading maneuver chart data...
Computing Atmospheric mass density...
Loading historical data...
Loading historical data...
Loading historical data...
Loading historical data...
Loading historical data...
Loading historical data...
Loading historical data...

Documentation

Showing up to 5 results
|